Location: Krakow
(50.0830°N, 19.9170°E)
Time: 19:21:05
(UTC+01:00)

Altair - Pass Details

Date: 10 December 2023
Orbit: 1501 x 1682 km, 47.2° (Epoch: 02 March)

Event Time Altitude Azimuth Distance (km) Brightness Sun altitude
Rises 04:01:54 0° 171° (S) 4,877 10.2 -31.8°
Reaches altitude 10° 04:07:50 10° 144° (SE) 3,859 10.0 -30.8°
Maximum altitude 04:11:11 12° 124° (ESE) 3,661 10.1 -30.3°
Drops below altitude 10° 04:14:30 10° 103° (ESE) 3,816 10.4 -29.8°
Sets 04:20:13 0° 76° (ENE) 4,761 11.2 -28.8°
